804  
ASUS44 KLCH 130710  
RWRLCH  
REGIONAL WEATHER ROUNDUP  
NATIONAL WEATHER SERVICE LAKE CHARLES LA  
200 AM CDT SAT AUG 13 2022  
 
NOTE: "FAIR" INDICATES FEW OR NO CLOUDS BELOW 12,000 FEET WITH NO  
SIGNIFICANT WEATHER AND/OR S TO VISIBILITY
.  
 
ACROSS SOUTHEAST TEXAS  
 
CITY SKY/WX TMP DP RH WIND PRES REMARKS
 
BEAUMONT CLEAR 78 76 93 NE8 29.94S  
BEAUMONT CITY FAIR 77 73 87 NE3 29.95S  
ORANGE SUNNY 79 75 89 CALM 29.97F  
JASPER N/A 73 75 100 CALM 29.96S  

 
 
ACROSS CENTRAL LOUISIANA  
 
CITY SKY/WX TMP DP RH WIND PRES REMARKS
 
LEESVILLE CLEAR 76 73 91 CALM 29.96F  
FULLERTON FAIR 76 73 91 CALM 29.95F  
ALEXANDRIA INT PTCLDY 78 74 87 N5 29.95F  
ESLER FIELD PTCLDY 75 74 96 CALM 29.97F  
DERIDDER N/A 75 73 95 CALM 29.99S  
OAKDALE SUNNY 73 70 88 CALM 29.96F FOG  
OPELOUSAS FAIR 74 74 100 CALM 29.96S  

 
 
ACROSS SOUTHWEST AND SOUTH CENTRAL LOUISIANA  
 
CITY SKY/WX TMP DP RH WIND PRES REMARKS
 
DEQUINCY FAIR 75 73 95 CALM 29.97S  
SULPHUR N/A 78 76 95 NE3 29.96F  
LAKE CHARLES CLEAR 75 74 96 E5 29.94F  
CHENNAULT INT CLEAR 76 74 94 E5 29.95F  
JENNINGS FAIR 75 75 100 E3 29.95F  
LAFAYETTE PTCLDY 76 75 97 CALM 29.95F  
NEW IBERIA PTCLDY 75 73 93 CALM 29.95F  
ABBEVILLE FAIR 75 72 92 CALM 29.95F  
PATTERSON PTCLDY N/A N/A N/A CALM 29.96F  
SALT POINT NOT AVBL  

 
 
SELECTED SITES ACROSS THE REGION  
 
CITY SKY/WX TMP DP RH WIND PRES REMARKS
 
HOUSTON BUSH MOCLDY 81 76 84 NW5 29.96S  
HOUSTON HOBBY MOCLDY 82 76 81 N3 29.94F  
GALVESTON CLEAR 85 74 69 NE6 29.94S  
COLLEGE STAT PTCLDY 80 75 84 W3 29.98R  
CONROE MOCLDY 77 75 93 CALM 29.98R  
HUNTSVILLE CLEAR 77 75 93 CALM 29.98R  
LUFKIN CLEAR 80 72 76 CALM 29.98S  
SHREVEPORT MOCLDY 80 72 76 E6 30.00F  
MONROE CLEAR 76 74 93 NE5 30.01S  
NATCHEZ MS PTCLDY 74 73 97 E6 30.00S  
BATON ROUGE CLEAR 75 74 96 NE3 29.97S  
N.O. INTL ARPT MOCLDY 79 75 87 E3 29.97S  
SLIDELL CLEAR 76 74 93 CALM 29.99R  

 
 
MARINE REPORTS  
 
STATION/POSITION TIME SKY/WX TEMP WIND PRES VSBY
 
AIR SEA DIR/SP/G  
(UTC) (F) (DEG/KT/KT) (MB) (MI)  
BUOY 30 S HIGH I 0650 70/ 10/ 12 1013.3S  
SEA RIM ST PARK 0700 79 50/ 7/ 8 1014.0S  
PORT ARTHUR 0624 81 88 60/ 4/ 8 1014.0  
TEXAS POINT 0624 78 87 30/ 9/ 10 1012.9  
CALCASIEU PASS 0624 79 87 110/ 13/ 17 1013.9  
LK CHARLES BEACH 0624 78 88 1014.7  
MARSH ISLAND NOT AVBL  
FRESH WATER LOCK NOT AVBL  
AMERADA PASS 0554 79 86 70/ 4/ 6 1014.6  

 
 
 
CLICK HERE TO GO TO PREVIOUS BULLETINS.

The Nexlab LA Page
The Nexlab TX Page Main Text Page